User: anonymous   Login
Location: Bakov nad Jizerou
(50.4784°N, 14.9394°E)
Time: 21:10:53
(UTC+00:00)
Language:

RESURS O1 DEB - Orbit

View from above orbital plane
View from above orbital plane
View from above satellite
View from above satellite

Ground track
Ground track

The orbit data is extracted from the following two-line orbital elements,

1 48501U 94074EC  22024.59748582  .00009225  00000-0  11243-2 0  9991
2 48501  97.8802  75.6599 0003764 128.3292 231.8261 14.83591654 47574
Epoch (UTC): 24 January 2022 14:20:22
Eccentricity: 0.0003764
inclination: 97.8802°
perigee height: 615 km
apogee height: 620 km
right ascension of ascending node: 75.6599°
argument of perigee: 128.3292°
revolutions per day: 14.83591654
mean anomaly at epoch: 231.8261°
orbit number at epoch: 4757

The dashed part of the orbit path shows where the satellite is in the earth's shadow,  

DLR